Time,TemperatureF,DewpointF,PressureIn,WindDirection,WindDirectionDegrees,WindSpeedMPH,WindSpeedGustMPH,Humidity,HourlyPrecipIn,Conditions,Clouds,dailyrainin,SoftwareType,DateUTC
2013-04-02 00:14:00,50.2,48.5,30.24,WSW,254,0.0,0.0,94,0.00,CLR,SCT,0.00,WeatherDisplay:10.37,2013-04-02 07:14:00,
2013-04-02 00:29:00,50.1,48.4,30.24,ESE,115,0.0,1.0,94,0.00,CLR,SCT,0.00,WeatherDisplay:10.37,2013-04-02 07:29:00,
2013-04-02 00:44:00,50.1,48.4,30.24,ESE,115,0.0,0.0,94,0.00,CLR,SCT,0.00,WeatherDisplay:10.37,2013-04-02 07:44:00,
2013-04-02 00:59:00,50.0,48.6,30.24,ESE,115,0.0,0.0,95,0.00,CLR,SCT,0.00,WeatherDisplay:10.37,2013-04-02 07:59:00,
2013-04-02 01:14:00,49.9,48.5,30.24,ESE,115,0.0,0.0,95,0.00,CLR,SCT,0.00,WeatherDisplay:10.37,2013-04-02 08:14:00,
2013-04-02 01:29:00,49.9,48.5,30.25,ESE,115,0.0,1.0,95,0.00,CLR,SCT,0.00,WeatherDisplay:10.37,2013-04-02 08:29:00,
2013-04-02 01:44:00,49.9,48.5,30.25,ESE,115,0.0,0.0,95,0.00,CLR,SCT,0.00,WeatherDisplay:10.37,2013-04-02 08:44:00,
2013-04-02 01:59:00,49.8,48.4,30.25,ESE,115,0.0,1.0,95,0.00,CLR,SCT,0.00,WeatherDisplay:10.37,2013-04-02 08:59:00,
2013-04-02 02:14:00,49.8,48.4,30.25,ESE,115,0.0,0.0,95,0.00,CLR,SCT,0.00,WeatherDisplay:10.37,2013-04-02 09:14:00,
2013-04-02 02:30:00,49.8,48.7,30.25,ESE,115,0.0,1.0,96,0.00,CLR,SCT,0.00,WeatherDisplay:10.37,2013-04-02 09:30:00,
2013-04-02 02:44:00,49.6,48.5,30.24,ESE,115,0.0,1.0,96,0.00,CLR,SCT,0.00,WeatherDisplay:10.37,2013-04-02 09:44:00,
2013-04-02 02:59:00,49.5,48.4,30.24,ESE,115,0.0,1.0,96,0.00,CLR,SCT,0.00,WeatherDisplay:10.37,2013-04-02 09:59:00,
2013-04-02 03:14:00,49.5,48.4,30.25,ESE,115,0.0,1.0,96,0.00,CLR,SCT,0.00,WeatherDisplay:10.37,2013-04-02 10:14:00,
2013-04-02 03:29:00,49.5,48.4,30.25,ESE,115,0.0,0.0,96,0.01,RA,SCT,0.01,WeatherDisplay:10.37,2013-04-02 10:29:00,
2013-04-02 03:44:00,49.5,48.4,30.25,ESE,115,0.0,1.0,96,0.00,CLR,SCT,0.01,WeatherDisplay:10.37,2013-04-02 10:44:00,
2013-04-02 03:59:00,49.5,48.4,30.26,West,280,0.0,3.0,96,0.00,CLR,SCT,0.01,WeatherDisplay:10.37,2013-04-02 10:59:00,
2013-04-02 04:14:00,49.4,48.3,30.26,West,266,0.0,2.0,96,0.00,CLR,SCT,0.01,WeatherDisplay:10.37,2013-04-02 11:14:00,
2013-04-02 04:29:00,49.4,48.3,30.26,WNW,298,0.0,2.0,96,0.00,CLR,SCT,0.01,WeatherDisplay:10.37,2013-04-02 11:29:00,
2013-04-02 04:44:00,49.3,48.2,30.26,WNW,298,0.0,1.0,96,0.00,CLR,SCT,0.01,WeatherDisplay:10.37,2013-04-02 11:44:00,
2013-04-02 04:59:00,49.4,48.6,30.26,WNW,298,0.0,1.0,97,0.00,CLR,SCT,0.01,WeatherDisplay:10.37,2013-04-02 11:59:00,
2013-04-02 05:14:00,49.3,48.2,30.25,West,270,0.0,1.0,96,0.00,CLR,SCT,0.01,WeatherDisplay:10.37,2013-04-02 12:14:00,
2013-04-02 05:29:00,49.2,48.1,30.25,South,185,0.0,1.0,96,0.01,RA,SCT,0.02,WeatherDisplay:10.37,2013-04-02 12:29:00,
2013-04-02 05:44:00,49.2,48.4,30.25,SE,145,0.0,1.0,97,0.00,CLR,SCT,0.02,WeatherDisplay:10.37,2013-04-02 12:44:00,
2013-04-02 05:59:00,49.2,48.4,30.24,SE,145,0.0,1.0,97,0.00,CLR,SCT,0.02,WeatherDisplay:10.37,2013-04-02 12:59:00,
2013-04-02 06:14:00,49.2,48.4,30.24,SE,145,0.0,0.0,97,0.00,CLR,SCT,0.02,WeatherDisplay:10.37,2013-04-02 13:14:00,
2013-04-02 06:29:00,49.2,48.4,30.24,SE,145,0.0,0.0,97,0.00,CLR,SCT,0.02,WeatherDisplay:10.37,2013-04-02 13:29:00,
2013-04-02 06:44:00,49.2,48.4,30.24,SE,145,0.0,0.0,97,0.00,CLR,SCT,0.02,WeatherDisplay:10.37,2013-04-02 13:44:00,
2013-04-02 06:59:00,49.2,48.4,30.24,SE,145,0.0,0.0,97,0.00,CLR,SCT,0.02,WeatherDisplay:10.37,2013-04-02 13:59:00,
2013-04-02 07:14:00,49.2,48.4,30.24,SE,145,0.0,0.0,97,0.00,CLR,SCT,0.02,WeatherDisplay:10.37,2013-04-02 14:14:00,
2013-04-02 07:29:00,49.2,48.4,30.24,SE,145,0.0,0.0,97,0.00,CLR,SCT,0.02,WeatherDisplay:10.37,2013-04-02 14:29:00,
2013-04-02 07:44:00,49.4,48.6,30.24,SE,145,0.0,0.0,97,0.00,CLR,SCT,0.02,WeatherDisplay:10.37,2013-04-02 14:44:00,
2013-04-02 07:59:00,49.7,48.8,30.25,SE,145,0.0,0.0,97,0.00,CLR,SCT,0.02,WeatherDisplay:10.37,2013-04-02 14:59:00,
2013-04-02 08:14:00,49.9,49.1,30.25,SE,145,0.0,0.0,97,0.00,CLR,SCT,0.02,WeatherDisplay:10.37,2013-04-02 15:14:00,
2013-04-02 08:29:00,50.2,49.4,30.25,SE,145,0.0,0.0,97,0.00,CLR,SCT,0.02,WeatherDisplay:10.37,2013-04-02 15:29:00,
2013-04-02 08:44:00,50.5,49.7,30.25,SE,145,0.0,1.0,97,0.00,CLR,SCT,0.02,WeatherDisplay:10.37,2013-04-02 15:44:00,
2013-04-02 08:59:00,50.4,49.3,30.25,SE,145,0.0,1.0,96,0.00,CLR,SCT,0.02,WeatherDisplay:10.37,2013-04-02 15:59:00,
2013-04-02 09:14:00,50.5,49.4,30.25,WSW,246,0.0,1.0,96,0.00,CLR,SCT,0.02,WeatherDisplay:10.37,2013-04-02 16:14:00,
2013-04-02 09:29:00,50.9,49.5,30.25,WSW,243,0.0,1.0,95,0.00,CLR,SCT,0.02,WeatherDisplay:10.37,2013-04-02 16:29:00,
2013-04-02 09:44:00,51.5,49.6,30.25,WSW,248,0.0,1.0,93,0.00,CLR,SCT,0.02,WeatherDisplay:10.37,2013-04-02 16:44:00,
2013-04-02 09:59:00,52.1,49.3,30.25,SW,235,0.0,3.0,90,0.00,CLR,SCT,0.02,WeatherDisplay:10.37,2013-04-02 16:59:00,
2013-04-02 10:14:00,52.5,49.3,30.26,South,172,0.0,2.0,89,0.00,CLR,SCT,0.02,WeatherDisplay:10.37,2013-04-02 17:14:00,
2013-04-02 10:29:00,53.1,49.3,30.26,West,267,1.0,5.0,87,0.00,CLR,SCT,0.02,WeatherDisplay:10.37,2013-04-02 17:29:00,
2013-04-02 10:44:00,53.0,49.5,30.26,West,268,1.0,4.0,88,0.00,CLR,SCT,0.02,WeatherDisplay:10.37,2013-04-02 17:44:00,
2013-04-02 10:59:00,53.0,49.8,30.26,WNW,302,1.0,4.0,89,0.00,CLR,SCT,0.02,WeatherDisplay:10.37,2013-04-02 17:59:00,
2013-04-02 11:14:00,52.2,49.9,30.26,West,267,0.0,5.0,92,0.00,CLR,SCT,0.02,WeatherDisplay:10.37,2013-04-02 18:14:00,
2013-04-02 11:29:00,51.9,49.9,30.27,NNW,331,0.0,2.0,93,0.00,CLR,SCT,0.02,WeatherDisplay:10.37,2013-04-02 18:29:00,
2013-04-02 11:44:00,51.8,50.1,30.27,NNW,336,0.0,2.0,94,0.00,CLR,SCT,0.02,WeatherDisplay:10.37,2013-04-02 18:44:00,
2013-04-02 11:59:00,51.9,50.2,30.27,NNW,328,0.0,2.0,94,0.00,CLR,SCT,0.02,WeatherDisplay:10.37,2013-04-02 18:59:00,
2013-04-02 12:14:00,52.4,50.1,30.27,West,276,0.0,7.0,92,0.00,CLR,SCT,0.02,WeatherDisplay:10.37,2013-04-02 19:14:00,
2013-04-02 12:29:00,53.0,50.7,30.27,West,278,0.0,6.0,92,0.00,CLR,SCT,0.02,WeatherDisplay:10.37,2013-04-02 19:29:00,
2013-04-02 12:44:00,53.6,50.7,30.27,NW,311,1.0,3.0,90,0.00,CLR,SCT,0.02,WeatherDisplay:10.37,2013-04-02 19:44:00,
2013-04-02 12:59:00,53.0,49.8,30.27,NNW,330,0.0,4.0,89,0.00,CLR,SCT,0.02,WeatherDisplay:10.37,2013-04-02 19:59:00,
2013-04-02 13:14:00,53.1,50.2,30.27,NNW,346,0.0,2.0,90,0.00,CLR,SCT,0.02,WeatherDisplay:10.37,2013-04-02 20:14:00,
2013-04-02 13:29:00,53.6,50.1,30.26,WSW,249,1.0,3.0,88,0.00,CLR,SCT,0.02,WeatherDisplay:10.37,2013-04-02 20:29:00,
2013-04-02 13:44:00,54.5,50.7,30.26,West,276,1.0,5.0,87,0.00,CLR,SCT,0.02,WeatherDisplay:10.37,2013-04-02 20:44:00,
2013-04-02 13:59:00,55.0,50.6,30.26,WNW,284,3.0,7.0,85,0.00,CLR,SCT,0.02,WeatherDisplay:10.37,2013-04-02 20:59:00,
2013-04-02 14:14:00,55.2,51.1,30.25,West,267,1.0,7.0,86,0.00,CLR,SCT,0.02,WeatherDisplay:10.37,2013-04-02 21:14:00,
2013-04-02 14:29:00,55.9,50.8,30.25,WNW,300,1.0,4.0,83,0.00,CLR,SCT,0.02,WeatherDisplay:10.37,2013-04-02 21:29:00,
2013-04-02 14:44:00,55.5,51.0,30.24,West,267,1.0,6.0,85,0.00,CLR,SCT,0.02,WeatherDisplay:10.37,2013-04-02 21:44:00,
2013-04-02 14:59:00,55.6,50.8,30.24,WNW,285,2.0,6.0,84,0.00,CLR,SCT,0.02,WeatherDisplay:10.37,2013-04-02 21:59:00,
2013-04-02 15:14:00,56.2,51.4,30.24,WNW,289,1.0,6.0,84,0.00,CLR,SCT,0.02,WeatherDisplay:10.37,2013-04-02 22:14:00,
2013-04-02 15:29:00,56.5,51.4,30.23,SW,231,1.0,7.0,83,0.00,CLR,SCT,0.02,WeatherDisplay:10.37,2013-04-02 22:29:00,
2013-04-02 15:44:00,57.5,51.7,30.23,West,265,1.0,7.0,81,0.00,CLR,SCT,0.02,WeatherDisplay:10.37,2013-04-02 22:44:00,
2013-04-02 15:59:00,57.4,51.6,30.23,West,273,3.0,7.0,81,0.00,CLR,SCT,0.02,WeatherDisplay:10.37,2013-04-02 22:59:00,
2013-04-02 16:14:00,57.9,51.5,30.22,WNW,297,2.0,6.0,79,0.00,CLR,SCT,0.02,WeatherDisplay:10.37,2013-04-02 23:14:00,
2013-04-02 16:29:00,58.3,51.5,30.22,WSW,249,1.0,6.0,78,0.00,CLR,SCT,0.02,WeatherDisplay:10.37,2013-04-02 23:29:00,
2013-04-02 16:44:00,58.2,51.4,30.22,WNW,293,3.0,7.0,78,0.00,CLR,SCT,0.02,WeatherDisplay:10.37,2013-04-02 23:44:00,
2013-04-02 16:59:00,58.2,51.0,30.21,NW,304,2.0,8.0,77,0.00,CLR,SCT,0.02,WeatherDisplay:10.37,2013-04-02 23:59:00,
2013-04-02 17:29:00,57.9,50.7,30.21,West,275,3.0,6.0,77,0.00,CLR,SCT,0.02,WeatherDisplay:10.37,2013-04-03 00:29:00,
2013-04-02 17:44:00,57.5,50.3,30.21,WNW,300,1.0,6.0,77,0.00,CLR,SCT,0.02,WeatherDisplay:10.37,2013-04-03 00:44:00,
2013-04-02 17:59:00,56.9,50.1,30.22,WNW,296,1.0,6.0,78,0.00,CLR,SCT,0.02,WeatherDisplay:10.37,2013-04-03 00:59:00,
2013-04-02 18:14:00,55.6,49.6,30.22,WNW,295,1.0,6.0,80,0.00,CLR,SCT,0.02,WeatherDisplay:10.37,2013-04-03 01:14:00,
2013-04-02 18:29:00,54.5,49.5,30.22,NW,308,0.0,7.0,83,0.00,CLR,SCT,0.02,WeatherDisplay:10.37,2013-04-03 01:29:00,
2013-04-02 18:44:00,53.1,48.4,30.22,WNW,297,1.0,7.0,84,0.00,CLR,SCT,0.02,WeatherDisplay:10.37,2013-04-03 01:44:00,
2013-04-02 18:59:00,52.1,47.7,30.23,WNW,297,1.0,7.0,85,0.00,CLR,SCT,0.02,WeatherDisplay:10.37,2013-04-03 01:59:00,
2013-04-02 19:14:00,51.4,47.4,30.22,NW,305,0.0,6.0,86,0.00,CLR,SCT,0.02,WeatherDisplay:10.37,2013-04-03 02:14:00,
2013-04-02 19:29:00,51.4,47.7,30.22,West,280,0.0,2.0,87,0.00,CLR,SCT,0.02,WeatherDisplay:10.37,2013-04-03 02:29:00,
2013-04-02 19:44:00,51.1,47.4,30.22,WNW,293,0.0,3.0,87,0.00,CLR,SCT,0.02,WeatherDisplay:10.37,2013-04-03 02:44:00,
2013-04-02 19:59:00,50.8,47.4,30.22,WNW,295,0.0,2.0,88,0.00,CLR,SCT,0.02,WeatherDisplay:10.37,2013-04-03 02:59:00,
2013-04-02 20:14:00,50.7,47.3,30.22,WNW,295,0.0,1.0,88,0.00,CLR,SCT,0.02,WeatherDisplay:10.37,2013-04-03 03:14:00,
2013-04-02 20:29:00,50.6,47.2,30.22,WNW,295,0.0,1.0,88,0.00,CLR,SCT,0.02,WeatherDisplay:10.37,2013-04-03 03:29:00,
2013-04-02 20:44:00,50.5,47.4,30.22,WNW,295,0.0,0.0,89,0.00,CLR,SCT,0.02,WeatherDisplay:10.37,2013-04-03 03:44:00,
2013-04-02 20:59:00,50.4,47.3,30.22,NW,309,0.0,1.0,89,0.00,CLR,SCT,0.02,WeatherDisplay:10.37,2013-04-03 03:59:00,
2013-04-02 21:14:00,50.2,47.1,30.22,NNE,18,0.0,1.0,89,0.00,CLR,SCT,0.02,WeatherDisplay:10.37,2013-04-03 04:14:00,
2013-04-02 21:29:00,49.9,46.8,30.22,NNE,18,0.0,2.0,89,0.00,CLR,SCT,0.02,WeatherDisplay:10.37,2013-04-03 04:29:00,
2013-04-02 21:44:00,49.6,46.8,30.22,NNE,18,0.0,1.0,90,0.00,CLR,SCT,0.02,WeatherDisplay:10.37,2013-04-03 04:44:00,
2013-04-02 21:59:00,49.3,46.5,30.22,NNE,15,0.0,2.0,90,0.00,CLR,SCT,0.02,WeatherDisplay:10.37,2013-04-03 04:59:00,
2013-04-02 22:14:00,49.2,46.7,30.22,NE,39,0.0,2.0,91,0.00,CLR,SCT,0.02,WeatherDisplay:10.37,2013-04-03 05:14:00,
2013-04-02 22:29:00,49.2,46.7,30.22,NE,39,0.0,0.0,91,0.00,CLR,SCT,0.02,WeatherDisplay:10.37,2013-04-03 05:29:00,
2013-04-02 22:44:00,49.1,46.6,30.22,NE,39,0.0,2.0,91,0.00,CLR,SCT,0.02,WeatherDisplay:10.37,2013-04-03 05:44:00,
2013-04-02 22:59:00,48.9,46.7,30.22,NE,39,0.0,1.0,92,0.00,CLR,SCT,0.02,WeatherDisplay:10.37,2013-04-03 05:59:00,
2013-04-02 23:14:00,48.9,46.6,30.22,NE,39,0.0,1.0,92,0.00,CLR,SCT,0.02,WeatherDisplay:10.37,2013-04-03 06:14:00,
2013-04-02 23:29:00,48.8,46.6,30.21,NNE,30,0.0,3.0,92,0.00,CLR,SCT,0.02,WeatherDisplay:10.37,2013-04-03 06:29:00,
2013-04-02 23:44:00,48.6,46.7,30.22,NNE,30,0.0,1.0,93,0.00,CLR,SCT,0.02,WeatherDisplay:10.37,2013-04-03 06:44:00,
2013-04-02 23:59:00,48.5,46.6,30.22,NNE,30,0.0,1.0,93,0.00,RA,SCT,0.00,WeatherDisplay:10.37,2013-04-03 06:59:00,